OpenBCM V1.08-5-g2f4a (Linux)

Packet Radio Mailbox

IZ3LSV

[San Dona' di P. JN]

 Login: GUEST





  
I0OJJ  > KEPS     02.03.25 09:06l 326 Lines 15596 Bytes #108 (0) @ AMSAT
BID : ORB25059.1
Read: GUEST
Subj: 2Line Orbital Elements 25059.AMSAT
Path: IZ3LSV<ED1ZAC<GB7CIP<VK2RZ<N6PNK<VE3CGR<PI8ZTM<I0OJJ
Sent: 250228/0345z @:I0OJJ.ITA.EU [Rome] obcm1.08-6-g5b69
From: I0OJJ @ I0OJJ.ITA.EU (Gustavo)
To:   KEPS @ AMSAT
X-Info: This message was generated automatically


QST de W1STR

AMSAT Orbital Elements for Amateur Satellites in TLE Format
From Orbital Analysis Office
New England Sci-Tech STEM Education Center
Natick, MA February 28, 2025
To all radio amateurs


These element sets describe the orbits of various satellites 
in use by the amateur radio community. For details see:
www.amsat.org/keplerian-elements-formats/

A daily update of element sets is available at:
www.amsat.org/tle/daily-bulletin.txt
or without bulletin text:
www.amsat.org/tle/dailytle.txt


AO-07
1 07530U 74089B   25058.44049119 -.00000023  00000-0  14724-3 0  9992
2 07530 101.9945  61.6135 0012000 318.0782 177.2596 12.53686730301024
UO-11
1 14781U 84021B   25058.46635997  .00004745  00000-0  51250-3 0  9991
2 14781  97.7418  26.9682 0006705 325.9764  34.1022 14.88794843186447
AO-27
1 22825U 93061C   25058.39677583  .00000393  00000-0  16739-3 0  9990
2 22825  98.7513 119.3825 0009249  57.1539 303.0532 14.30738364639101
FO-29
1 24278U 96046B   25058.27661102  .00000034  00000-0  73572-4 0  9998
2 24278  98.5862 325.5852 0348936 247.5517 108.8324 13.53238835409186
NOAA-15
1 25338U 98030A   25058.78704368  .00000498  00000-0  22266-3 0  9996
2 25338  98.5470  86.3166 0009208 300.0495  59.9771 14.26895909393888
GO-32
1 25397U 98043D   25058.47862151  .00000346  00000-0  17012-3 0  9991
2 25397  98.9597  35.5268 0002091 118.7747 241.3641 14.24262437383753
ISS
1 25544U 98067A   25058.66013045  .00061406  00000-0  10908-2 0  9992
2 25544  51.6385 129.5122 0005976 320.1405 159.8209 15.49585351498173
NO-44
1 26931U 01043C   25058.30365009  .00000744  00000-0  31013-3 0  9991
2 26931  67.0516  32.2587 0005889 265.3309  94.7120 14.31635590222469
SO-50
1 27607U 02058C   25058.54880150  .00003842  00000-0  50408-3 0  9995
2 27607  64.5553 155.3637 0044314 359.3666   0.7375 14.81041533194114
CO-55
1 27844U 03031E   25058.44030338  .00001085  00000-0  49290-3 0  9998
2 27844  98.6795  68.0245 0010684 120.9139 239.3091 14.23844461124102
CO-57
1 27848U 03031J   25058.48222935  .00000908  00000-0  42086-3 0  9991
2 27848  98.6823  68.1473 0010381 136.1885 224.0118 14.23201389123840
RS-22
1 27939U 03042A   25058.86226703  .00003904  00000-0  63183-3 0  9993
2 27939  98.3154 225.9389 0011096 336.6605 131.1199 14.71846751145869
NOAA-18
1 28654U 05018A   25058.83745145  .00000486  00000-0  28134-3 0  9995
2 28654  98.8489 139.4418 0014925  61.2273 299.0396 14.13528189 19375
CO-58
1 28895U 05043F   25058.33050702  .00005474  00000-0  91379-3 0  9996
2 28895  98.2308 201.5457 0013921 270.5333  89.4278 14.70278298 31917
CO-65
1 32785U 08021C   25058.12285794  .00013862  00000-0  10459-2 0  9995
2 32785  97.7747  28.7215 0009975 189.3622 170.7418 15.02508531913757
AAUSAT2
1 32788U 08021F   25058.52305948  .00168881  00000-0  28360-2 0  9998
2 32788  97.6058  50.9113 0005034  77.7473 282.4342 15.51160919917382
CO-66
1 32791U 08021J   25058.45989612  .00026829  00000-0  14542-2 0  9992
2 32791  97.7200  36.5576 0006228 133.3760 226.7991 15.14546447915093
RS-30
1 32953U 08025A   25058.83711185  .00000050  00000-0  28654-3 0  9994
2 32953  82.5009 290.4757 0018667 268.3429  91.5512 12.43159464760885
NOAA-19
1 33591U 09005A   25058.82725627  .00000457  00000-0  26764-3 0  9998
2 33591  99.0107 122.9116 0012794 292.1538  67.8276 14.13296699827737
SRMSAT
1 37841U 11058D   25058.28986001  .00000758  00000-0  26895-3 0  9995
2 37841  19.9727  53.5234 0011788  20.9691   7.1699 14.11372100690641
ZACUBE-1
1 39417U 13066B   25058.37927979  .00013841  00000-0  12468-2 0  9993
2 39417  97.7686  16.1241 0047101  35.7131 324.7224 14.94844746609636
Delfi-N3xt
1 39428U 13066N   25058.50641529  .00023334  00000-0  24920-2 0  9998
2 39428  97.8378 337.4555 0087932 337.6931  22.0469 14.85949693603902
GOMX-1
1 39430U 13066Q   25058.88124154  .00006072  00000-0  95493-3 0  9996
2 39430  97.6980 283.7429 0134447 157.2359 203.4885 14.66932410600495
LO-74
1 39440U 13066AA  25058.55321178  .00009590  00000-0  10014-2 0  9999
2 39440  97.8404   3.9861 0064705 154.8151 205.6245 14.88358614606259
AO-73
1 39444U 13066AE  25058.56821037  .00022544  00000-0  17951-2 0  9994
2 39444  97.7531  20.4205 0042284  13.3448 346.8882 14.99667078608284
DTUSAT-2
1 40030U 14033W   25058.38504970  .00018866  00000-0  13033-2 0  9995
2 40030  98.0441  25.5013 0011364  53.5165 306.7106 15.05748493581004
EO-80
1 40032U 14033Y   25058.41082821  .00017468  00000-0  12047-2 0  9998
2 40032  98.0327  25.3229 0008642   2.9213 357.2061 15.05851669580980
LILACSAT-2
1 40908U 15049K   25058.81075161  .00023459  00000-0  68254-3 0  9990
2 40908  97.5150  76.8884 0010910 155.1021 205.0750 15.35376520522596
IO-86
1 40931U 15052B   25038.81889873  .00001817  00000-0  15548-3 0  9993
2 40931   6.0001 108.1159 0012838 187.7041 172.2889 14.78568669506492
Horyu-4
1 41340U 16012D   25058.45229678  .00037268  00000-0  12224-2 0  9994
2 41340  30.9999  95.7129 0006840  92.8692 267.2734 15.30390176497095
Lapan A3
1 41603U 16040E   25058.82331890  .00008450  00000-0  30503-3 0  9990
2 41603  97.1392  67.4849 0009211 272.6932  87.3255 15.28692868482233
CAS-2T
1 41847U 16066G   25058.49664159  .00004565  00000-0  65515-3 0  9992
2 41847  98.4298 133.8381 0348699 127.1563 236.2016 14.43035293436295
CAS-4B
1 42759U 17034B   25058.81148703  .00079637  00000-0  14175-2 0  9996
2 42759  43.0104 202.1149 0018208 298.2299  61.6722 15.49010333426746
CAS-4A
1 42761U 17034D   25058.83710000  .00080934  00000-0  14119-2 0  9996
2 42761  43.0143 199.8615 0019423 304.0880  55.8136 15.49547776426766
TechnoSat
1 42829U 17042E   25058.73039025  .00009109  00000-0  72576-3 0  9997
2 42829  97.3885 232.3536 0011869 270.8009  89.1855 15.00510018415447
AO-91
1 43017U 17073E   25058.37312750  .00018613  00000-0  99335-3 0  9992
2 43017  97.5473 291.7979 0181577 153.7250 207.3329 15.02029809393858
S-Net D
1 43186U 18014G   25058.45472458  .00012418  00000-0  76555-3 0  9992
2 43186  97.5731 322.4684 0008281 204.5216 155.5620 15.10062575386951
S-Net B
1 43187U 18014H   25058.45890144  .00012487  00000-0  76997-3 0  9995
2 43187  97.5734 322.4390 0009190 200.6358 159.4502 15.10046829386959
S-Net A
1 43188U 18014J   25058.25664250  .00012175  00000-0  75061-3 0  9996
2 43188  97.5746 322.3761 0008998 201.7623 158.3225 15.10061167386925
S-Net C
1 43189U 18014K   25058.46106788  .00012621  00000-0  77797-3 0  9991
2 43189  97.5759 322.5749 0010850 194.9420 165.1490 15.10043667385504
Ten-Koh
1 43677U 18084G   25058.54612820  .00008968  00000-0  73304-3 0  9997
2 43677  98.0885 226.7414 0009859 244.8731 115.1468 14.99579918344945
PO-101
1 43678U 18084H   25058.78845383  .00006512  00000-0  56446-3 0  9997
2 43678  98.0935 231.1191 0007975 266.1668  93.8641 14.97438145345149
QO-100
1 43700U 18090A   25058.28983409  .00000142  00000-0  00000-0 0  9992
2 43700   0.0097 134.7315 0001249 232.1238 280.6249  1.00271779 22912
MinXSS-2
1 43758U 18099A   25058.46582296  .00032603  00000-0  14712-2 0  9997
2 43758  97.5162 124.4360 0013709 152.9343 207.2610 15.20845864341421
AO-95
1 43770U 18099N   25058.40322295  .00020366  00000-0  11152-2 0  9994
2 43770  97.5072 117.7411 0011226 200.7144 159.3634 15.14203103341071
RANGE-A
1 43773U 18099R   25058.57466451  .00012137  00000-0  80224-3 0  9992
2 43773  97.4636 109.9540 0011974 175.9698 184.1628 15.07471222340846
MOVE-II
1 43780U 18099Y   25058.75652601  .00119150  00000-0  25508-2 0  9990
2 43780  97.4806 129.3283 0004211 166.1768 193.9596 15.44328930341941
SNUSat 2
1 43782U 18099AA  25058.59453151  .00018608  00000-0  10812-2 0  9991
2 43782  97.4757 115.4752 0013697 142.7308 217.4876 15.12066063341071
SnugLite
1 43784U 18099AC  25058.58662620  .00022384  00000-0  12158-2 0  9996
2 43784  97.4565 114.8560 0004653 140.8434 219.3135 15.14514995341186
ITASat 1
1 43786U 18099AE  25058.10063347  .00015446  00000-0  93160-3 0  9991
2 43786  97.4727 114.7775 0014893 195.6900 164.3871 15.10741625340978
EAGLET 1
1 43790U 18099AJ  25058.59235482  .00010901  00000-0  71904-3 0  9993
2 43790  97.4916 115.5051 0012778 173.4211 186.7187 15.07569194340690
ESEO
1 43792U 18099AL  25058.56278155  .00005585  00000-0  43092-3 0  9995
2 43792  97.4579 110.0480 0011343 144.1286 216.0703 15.01912716340504
CSIM
1 43793U 18099AM  25058.09368281  .00115671  00000-0  24690-2 0  9994
2 43793  97.4993 130.6572 0006641 142.8572 217.3136 15.44418031341685
JO-97
1 43803U 18099AX  25058.09896488  .00025115  00000-0  12653-2 0  9990
2 43803  97.4822 118.2615 0009004 138.9801 221.2111 15.17124502341218
Suomi 100
1 43804U 18099AY  25058.42809438  .00021937  00000-0  11641-2 0  9991
2 43804  97.4888 118.1321 0014238 140.3202 219.9075 15.15268528341219
ISAT
1 43879U 18111D   25058.48368873  .00040121  00000-0  16523-2 0  9997
2 43879  97.6037 331.0078 0009569 180.8889 179.2332 15.23953526338112
UWE-4
1 43880U 18111E   25058.49574313  .00033075  00000-0  14797-2 0  9999
2 43880  97.5972 330.1245 0012337 197.6287 162.4522 15.21154754338087
Sparrow
1 43881U 18111F   25058.53839886  .00042159  00000-0  16891-2 0  9994
2 43881  97.6159 333.5834 0005774 221.4101 138.6699 15.24893593338203
Prox-1
1 44339U 19036A   25058.30054735  .00022089  00000-0  30551-2 0  9996
2 44339  23.9988  12.1000 0007162 343.4184  16.6078 14.76557560302864
SONATE
1 44400U 19038Q   25058.48430134  .00102756  00000-0  12075-2 0  9998
2 44400  97.7079  74.4285 0006362 254.7800 105.2753 15.61088531313509
Taurus 1
1 44530U 19059C   25058.81030972  .00019955  00000-0  38638-2 0  9999
2 44530  98.5925 193.6225 0009107 345.0570  15.0360 14.63307312289043
